Wetbulb
49.62 49.25 49.44 49.10 49.37 49.43 49.90 49.48 49.27 49.39 49.29 49.35 49.67 48.84 48.87 49.15 49.21 48.46 47.74 52.35 48.79 42.39 43.85 46.20 46.62 42.94 43.46 42.08 37.00 39.91 38.51 40.30 39.96 34.96 34.18 33.67 33.47 34.90 35.33 36.41 35.95 34.67 34.74 34.73 36.38 33.09 31.41 43.73 46.07 42.56 45.38 52.40 52.90 53.19
49.59 49.68 49.60 49.43 49.39 48.97 49.36 49.54 49.79 49.47 49.04 49.53 49.43 49.78 49.16 49.05 49.35 49.12 44.51 51.31 52.83 45.04 43.81 48.72 48.78 50.11 49.15 46.73 43.14 39.75 38.16 39.64 40.40 37.25 37.27 36.56 34.28 36.20 35.47 32.11 40.44 33.81 37.12 35.16 37.32 34.50 40.83 45.34 45.82 47.70 49.71 50.30 52.28 53.00
49.66 49.89 49.48 49.30 49.25 49.21 49.22 49.32 49.67 49.47 49.32 49.59 49.42 49.92 49.70 49.20 48.80 48.32 45.63 48.43 47.81 43.56 45.62 47.54 46.98 50.90 53.17 51.80 51.35 39.11 39.89 41.70 42.04 43.03 38.47 36.36 33.39 38.18 32.85 34.66 36.95 38.94 41.46 37.57 38.69 39.83 41.63 44.84 47.91 49.16 51.10 50.57 52.71 54.26
49.11 49.38 49.41 49.40 49.30 49.18 49.23 49.32 49.32 49.38 48.90 48.94 49.64 49.69 49.76 49.38 49.12 48.15 45.85 50.19 47.97 44.33 39.09 44.84 53.34 49.00 53.62 52.78 50.25 48.55 44.85 43.80 43.29 42.18 39.02 38.70 36.64 42.84 38.27 38.75 37.71 40.11 41.18 38.40 38.37 41.03 43.91 44.67 46.50 47.68 49.85 51.26 52.22 53.95
48.65 48.68 48.84 48.85 48.79 48.08 48.86 49.08 49.13 49.24 49.60 49.13 49.53 49.84 49.76 48.78 48.68 48.81 49.08 51.04 51.00 44.66 40.23 42.78 48.12 52.32 53.14 51.71 49.66 49.28 45.98 42.19 40.83 40.64 39.94 40.76 43.73 42.95 43.77 41.81 38.81 42.71 40.12 37.40 37.20 42.83 43.02 43.68 46.96 49.49 49.58 50.47 52.06 52.60
47.86 47.87 48.15 48.31 48.36 48.36 48.70 48.87 49.05 49.40 49.65 49.15 49.23 49.48 49.36 48.85 48.56 48.49 45.48 51.98 52.76 51.03 42.97 38.75 49.76 49.63 50.64 51.47 49.88 49.17 48.63 44.60 43.22 43.30 43.58 44.78 47.97 43.61 38.95 36.80 41.87 43.40 45.18 45.53 42.42 46.26 46.41 47.47 49.36 49.25 49.58 51.50 52.81 53.34
46.69 47.08 47.44 47.59 48.08 48.31 48.44 48.80 49.15 49.38 49.58 49.00 48.88 49.20 48.72 48.51 49.13 48.75 46.27 48.39 51.39 52.13 43.12 39.84 42.78 50.25 50.07 50.73 49.74 49.63 50.43 47.69 47.34 44.98 44.80 44.08 45.14 46.00 40.30 36.03 40.66 43.60 45.03 45.64 46.90 47.23 45.25 46.71 45.85 49.68 51.03 51.85 53.03 54.00
45.59 46.48 46.83 47.27 47.50 47.92 48.41 48.67 48.82 49.22 49.14 49.13 49.08 49.06 48.67 49.58 49.48 49.08 52.11 49.84 51.82 49.10 46.75 38.75 41.22 44.75 51.51 46.60 44.26 50.18 46.29 48.46 47.43 44.69 45.66 44.57 45.30 43.54 37.67 40.32 43.21 44.68 45.78 45.92 47.25 47.81 47.85 48.87 49.51 49.86 51.05 51.63 51.15 52.19
44.39 44.63 45.45 45.78 46.20 47.26 47.90 48.49 48.77 48.85 48.88 48.72 48.61 48.71 49.92 49.37 48.53 48.11 49.62 49.56 52.70 48.81 41.19 40.61 39.68 40.03 50.14 46.07 48.31 47.01 47.90 43.04 48.17 43.38 44.20 45.30 41.67 37.89 40.69 42.64 43.71 44.28 43.55 43.83 46.95 46.79 47.81 48.14 47.37 48.35 49.09 49.82 49.82 50.54
43.70 43.91 44.12 44.80 45.90 46.11 46.80 47.55 48.59 48.50 48.41 48.40 48.94 48.77 45.98 47.83 49.49 50.04 47.85 45.28 43.49 44.50 44.47 41.30 46.04 42.95 46.56 45.08 44.46 44.44 46.50 43.32 39.48 43.66 45.95 42.40 39.94 44.77 45.88 46.41 46.26 46.49 47.12 47.19 44.19 44.36 46.42 46.68 46.91 47.83 48.87 49.90 50.32 50.46
43.03 43.52 43.79 44.41 44.97 46.45 47.40 47.92 48.11 48.01 47.82 49.56 46.28 45.69 49.23 50.11 48.89 47.11 42.42 40.85 42.20 39.85 44.05 45.14 45.60 43.38 49.16 42.91 41.56 44.83 42.03 43.00 38.18 41.48 41.10 39.66 38.78 42.67 46.41 46.43 48.27 48.49 48.44 48.19 47.98 48.12 48.37 48.16 47.95 47.78 47.95 48.71 50.61 50.91
42.59 43.04 43.35 43.40 43.96 45.12 46.10 46.89 47.87 46.59 46.85 44.73 43.91 45.92 47.25 44.50 43.21 39.15 39.96 43.07 42.44 40.83 44.89 44.58 44.84 47.01 47.50 48.20 43.63 43.38 39.03 40.63 36.11 45.30 41.18 37.01 41.83 45.46 46.03 46.48 47.76 48.63 47.92 47.40 48.88 48.04 47.73 48.13 47.92 48.03 48.15 47.52 48.18 49.60
42.37 42.61 43.03 43.40 43.67 44.35 45.04 46.07 46.51 46.83 46.93 46.29 42.67 39.47 39.94 41.72 36.90 36.62 34.96 39.53 40.72 44.71 45.85 45.88 43.63 46.68 47.16 46.46 42.46 41.36 35.53 35.73 44.00 39.91 38.28 41.76 45.67 46.70 47.17 47.58 48.03 48.86 48.07 48.13 48.40 48.51 48.05 48.57 49.29 48.45 47.39 48.15 48.91 49.93
42.05 42.64 42.96 43.40 43.86 45.68 46.00 45.80 46.59 46.75 44.79 42.54 39.67 35.17 37.43 37.59 40.47 41.80 42.77 43.87 46.56 47.08 45.23 45.82 44.42 44.52 46.45 42.79 41.08 36.01 40.14 41.46 34.65 34.57 35.13 43.72 44.35 46.61 47.35 48.12 47.54 47.38 48.26 48.41 48.78 49.08 48.09 47.87 48.43 48.66 48.89 48.27 47.33 47.41
41.95 42.35 43.45 44.99 45.41 45.65 46.03 46.06 45.66 46.71 44.70 42.06 42.34 35.13 39.52 44.60 46.59 47.28 48.03 46.99 47.72 48.18 46.36 45.25 45.37 45.49 43.53 40.49 40.85 38.89 35.19 33.50 36.60 36.86 43.51 46.49 48.35 48.03 47.73 48.65 47.82 47.53 48.68 48.56 49.24 48.69 48.25 48.32 47.93 48.11 48.62 48.38 48.38 47.94
41.91 42.56 43.57 44.88 44.41 44.59 44.42 45.15 46.90 46.78 44.05 42.89 42.49 41.66 45.61 45.20 45.86 46.78 46.50 45.68 48.67 47.59 48.24 46.63 42.45 40.42 39.94 40.91 37.21 35.42 33.93 33.45 39.77 45.87 47.19 49.13 48.64 48.95 49.09 49.44 49.36 49.10 48.77 48.73 49.11 49.56 48.83 48.62 48.35 48.41 49.16 48.55 48.91 48.39
40.81 43.43 44.42 43.86 43.18 43.48 44.81 44.47 46.03 42.41 41.15 39.36 40.74 45.65 45.04 44.84 44.87 46.71 48.54 48.12 50.28 46.59 42.63 42.90 38.77 38.42 43.21 38.73 37.30 41.47 38.34 42.88 46.09 46.54 48.58 49.67 48.65 48.57 49.39 50.20 49.65 49.81 49.73 49.46 49.08 49.27 49.21 49.26 49.90 48.75 47.87 48.57 48.41 48.73
40.77 43.43 43.17 42.37 42.30 42.77 45.69 44.42 43.12 41.83 37.33 40.36 39.23 42.29 44.96 46.48 46.62 48.13 49.09 50.43 48.36 46.00 44.94 42.39 44.98 39.74 37.88 36.25 38.43 44.62 46.47 47.03 48.00 48.13 48.70 49.84 49.58 49.60 49.72 49.39 49.18 49.45 49.32 49.37 49.88 49.17 49.49 48.50 47.78 47.51 48.86 49.10 49.32 48.00
41.66 41.90 41.97 42.19 41.85 40.44 39.52 41.84 42.94 37.26 39.57 42.41 44.41 45.74 46.25 46.92 48.99 49.97 50.35 50.82 51.13 50.37 46.98 44.73 40.94 39.62 41.01 43.78 43.96 45.34 46.59 46.96 46.91 46.76 48.71 50.62 50.90 49.86 49.78 49.72 49.56 49.72 49.48 50.03 49.72 49.23 49.62 49.08 48.16 48.32 48.13 48.14 46.96 46.87
41.99 42.70 43.11 43.64 43.08 39.92 36.43 39.86 45.42 40.21 38.28 42.14 44.70 44.28 45.39 46.06 48.10 48.86 49.50 49.22 48.55 46.56 43.30 41.97 42.24 44.20 45.03 46.97 48.24 47.87 48.52 49.66 48.56 46.35 46.32 49.04 50.71 50.56 50.03 49.43 49.25 50.07 49.73 49.79 49.29 45.62 49.47 49.25 48.79 48.72 47.76 47.43 47.01 45.25
41.62 42.21 42.93 43.77 41.95 40.43 39.42 39.09 39.72 42.27 42.10 40.87 43.36 43.80 43.88 46.62 45.44 46.27 46.75 49.26 46.33 45.25 43.19 45.72 46.30 47.89 49.96 49.79 50.28 50.19 49.28 49.52 48.09 47.87 47.74 47.81 49.42 50.51 47.23 50.21 50.28 50.03 48.90 48.66 48.04 47.23 46.17 48.52 48.20 48.84 48.53 47.96 47.28 46.79
40.87 43.12 40.87 42.00 38.51 38.74 37.23 40.29 39.03 41.59 39.75 40.03 41.41 42.38 41.11 40.81 41.79 43.33 46.59 44.73 44.98 46.12 47.13 47.20 47.92 48.48 48.97 49.21 50.18 51.58 50.75 50.32 50.25 48.77 46.50 46.05 48.59 47.60 48.07 49.61 49.32 48.35 48.49 48.85 48.49 47.76 48.53 48.56 48.14 48.56 48.44 48.09 46.49 46.56
41.62 41.46 38.33 37.40 34.33 34.99 33.89 41.61 35.92 38.25 35.37 37.80 41.37 38.84 39.83 42.02 43.77 46.88 43.15 44.77 45.47 48.20 49.07 49.13 49.78 50.63 49.81 50.65 50.90 50.65 50.52 50.09 48.18 49.03 49.34 49.18 48.98 50.31 49.53 50.08 50.27 48.37 47.69 48.78 49.58 48.20 48.28 44.43 45.19 47.18 47.80 47.76 47.02 45.87
41.70 36.71 34.68 33.57 33.64 30.92 36.56 34.71 38.22 35.99 37.76 37.11 36.68 34.77 37.45 39.96 43.18 41.72 39.62 43.08 46.20 48.06 48.23 49.03 48.78 47.90 49.02 48.64 47.82 48.32 49.44 50.18 49.32 49.44 49.74 49.62 48.16 48.65 50.09 49.99 49.87 50.35 49.61 49.39 48.99 48.30 48.18 47.66 44.36 47.48 46.40 45.86 45.96 44.66
30.61 31.27 32.91 29.93 34.68 31.50 29.74 31.33 32.75 34.11 31.37 34.37 33.91 34.51 37.44 41.28 37.73 37.92 38.07 42.17 45.16 45.44 47.84 48.73 47.64 47.59 46.12 46.34 47.78 49.08 50.69 49.64 48.18 47.65 49.18 49.81 49.38 48.65 48.49 48.66 49.81 49.80 50.27 48.15 47.57 47.54 47.47 47.46 46.66 46.37 45.48 44.20 44.01 43.80
26.19 29.84 30.44 30.85 31.40 30.49 31.07 28.81 30.28 31.62 33.22 32.46 34.47 38.31 39.37 37.08 34.46 33.96 39.43 43.18 44.80 46.78 47.38 46.30 45.81 46.30 46.65 47.15 46.51 47.36 48.83 50.47 49.78 47.96 48.77 50.85 49.87 48.22 46.99 46.28 46.36 47.18 49.41 48.97 48.22 47.25 46.35 46.53 46.22 44.97 44.51 41.01 35.02 42.12
24.07 26.20 32.09 37.35 35.96 35.20 33.21 34.57 35.27 32.59 30.94 31.26 35.24 35.93 35.87 31.19 33.33 39.50 43.67 42.45 46.53 48.33 48.65 47.59 47.60 47.50 46.99 47.18 48.51 49.75 50.67 50.11 48.97 48.37 49.70 50.97 50.38 49.03 50.10 47.77 46.72 48.30 50.10 48.80 47.81 46.83 46.30 46.06 45.64 45.06 44.39 44.33 43.22 42.40
30.21 31.09 26.80 30.83 32.09 33.98 29.66 30.47 30.49 30.02 32.80 36.46 36.99 31.71 33.21 33.34 33.09 38.03 41.72 43.56 44.70 44.22 47.25 47.88 49.21 47.83 47.13 47.38 48.43 48.93 49.67 50.35 50.48 50.44 50.95 51.09 51.10 51.04 50.58 49.72 48.40 38.71 48.48 48.35 47.70 47.43 46.56 45.88 45.35 44.52 43.68 42.88 42.60 42.43
29.59 32.80 32.05 28.63 30.09 31.27 31.25 30.63 31.37 34.54 37.20 36.27 32.54 31.33 33.30 39.10 40.26 41.07 44.13 44.71 45.85 44.15 43.96 44.31 45.72 47.33 47.25 47.70 48.67 48.97 50.45 49.21 46.87 44.83 45.48 44.76 45.67 46.92 49.08 48.96 47.89 48.20 47.74 44.49 31.33 39.00 44.60 44.90 45.04 44.49 43.57 43.02 42.19 41.53
29.82 33.67 29.74 30.07 28.56 27.93 31.91 35.65 34.74 37.92 39.27 39.05 39.16 38.31 38.89 40.32 41.03 40.59 40.52 41.37 41.62 41.95 43.37 44.54 45.42 45.63 45.41 45.41 45.24 47.38 48.25 49.08 47.95 44.23 43.02 44.75 45.36 47.79 48.05 48.11 47.30 47.22 47.55 46.27 44.61 41.69 31.87 40.61 37.49 43.23 42.55 39.57 37.73 37.66
33.34 32.99 31.20 31.53 30.06 33.35 35.46 38.02 38.65 38.90 38.30 37.70 39.13 37.34 36.86 38.35 38.57 38.79 37.46 38.91 41.07 42.99 42.76 41.64 43.78 42.87 43.67 43.01 41.72 43.09 40.38 40.25 41.69 43.04 43.34 46.40 47.64 47.64 48.36 48.45 47.66 45.88 47.44 46.53 45.31 44.30 43.35 42.85 41.49 40.17 38.21 36.08 34.19 34.33
33.32 31.88 31.06 29.62 31.26 36.30 37.30 35.50 36.13 35.67 36.40 35.92 35.96 37.65 37.85 37.31 33.23 32.75 34.89 35.52 34.69 34.03 33.57 35.37 38.39 40.38 40.18 41.53 42.55 41.35 36.21 40.19 39.15 39.40 40.50 41.53 42.38 46.03 47.54 46.83 47.01 46.06 45.69 44.87 44.73 44.03 42.15 40.36 38.68 37.55 36.34 34.79 33.99 33.08
33.54 33.77 33.83 33.04 32.07 31.86 35.61 35.36 34.05 33.74 34.68 34.64 35.20 36.45 36.30 34.11 29.56 33.24 36.58 36.85 34.69 33.37 33.60 34.29 35.77 38.58 39.51 39.82 39.80 39.12 37.78 39.03 34.31 31.67 32.16 32.26 32.74 35.98 42.45 42.93 43.16 43.46 41.95 41.47 40.67 40.42 39.18 37.91 36.32 35.64 35.18 34.12 33.33 32.57
MSLP
1027.95 1027.61 1027.20 1026.77 1026.29 1025.84 1025.36 1024.90 1024.40 1023.90 1023.39 1022.86 1022.41 1021.93 1021.43 1021.02 1020.62 1020.24 1018.84 1018.00 1018.00 1016.82 1014.67 1013.73 1012.92 1012.53 1012.00 1012.28 1012.46 1012.33 1011.82 1010.44 1009.76 1009.76 1009.33 1008.65 1007.77 1007.07 1006.31 1005.61 1004.64 1004.69 1004.44 1003.86 1003.79 1003.94 1003.45 1002.17 999.97 998.48 999.74 997.27 996.15 996.06
1027.43 1027.00 1026.61 1026.19 1025.72 1025.29 1024.82 1024.38 1023.91 1023.37 1022.87 1022.38 1021.85 1021.40 1020.98 1020.56 1020.17 1019.89 1018.75 1017.17 1017.13 1017.20 1014.80 1013.46 1012.57 1012.09 1011.73 1011.86 1012.47 1013.24 1013.28 1012.49 1011.78 1011.34 1011.05 1010.41 1009.38 1008.40 1007.32 1006.64 1006.15 1005.68 1006.52 1005.97 1005.50 1005.72 1005.83 1004.21 1001.94 1000.99 999.50 997.74 996.97 996.55
1026.81 1026.40 1026.00 1025.59 1025.14 1024.66 1024.19 1023.73 1023.27 1022.73 1022.24 1021.77 1021.27 1020.74 1020.26 1019.91 1019.66 1019.47 1018.40 1017.77 1017.55 1016.59 1013.43 1010.55 1010.03 1010.22 1010.62 1010.92 1011.91 1013.01 1013.13 1013.10 1012.49 1012.56 1012.01 1011.05 1009.85 1008.59 1007.66 1007.57 1007.13 1006.85 1006.24 1006.30 1006.45 1006.26 1005.38 1004.23 1002.55 1001.44 1000.23 999.39 998.56 997.59
1026.22 1025.81 1025.44 1025.00 1024.54 1024.04 1023.57 1023.03 1022.54 1022.09 1021.54 1021.02 1020.56 1020.06 1019.54 1019.14 1018.83 1018.72 1017.84 1016.73 1016.82 1016.36 1014.52 1010.51 1009.13 1009.83 1009.92 1010.67 1011.62 1012.12 1012.53 1012.99 1012.95 1012.32 1011.46 1010.05 1008.88 1008.07 1007.67 1007.83 1007.46 1007.53 1006.93 1006.72 1006.33 1006.10 1005.20 1004.47 1003.21 1002.29 1001.25 1000.48 999.70 998.97
1025.68 1025.27 1024.89 1024.42 1023.93 1023.46 1022.95 1022.43 1021.84 1021.35 1020.81 1020.24 1019.71 1019.20 1018.75 1018.35 1018.04 1017.61 1016.63 1015.82 1015.80 1016.25 1014.15 1011.59 1010.25 1008.67 1009.04 1010.07 1010.59 1011.31 1012.11 1012.50 1012.24 1010.93 1009.98 1008.05 1006.09 1006.22 1007.20 1007.39 1007.52 1007.33 1007.28 1007.60 1007.26 1006.51 1005.80 1005.02 1004.13 1002.91 1001.75 1001.17 1000.52 999.91
1025.33 1024.78 1024.31 1023.84 1023.38 1022.91 1022.37 1021.81 1021.22 1020.66 1020.09 1019.46 1018.92 1018.45 1017.97 1017.55 1017.22 1016.59 1015.09 1014.32 1014.60 1015.02 1014.83 1012.57 1008.79 1008.10 1008.51 1008.97 1009.35 1009.93 1010.65 1011.35 1011.01 1009.46 1008.18 1006.66 1005.95 1006.26 1006.71 1007.43 1007.54 1007.27 1006.95 1006.46 1006.13 1006.08 1005.24 1004.41 1003.64 1003.00 1002.09 1001.22 1000.55 999.93
1024.79 1024.29 1023.81 1023.31 1022.83 1022.32 1021.77 1021.19 1020.62 1019.98 1019.37 1018.70 1018.05 1017.59 1017.06 1016.61 1016.45 1015.10 1014.70 1014.56 1014.20 1014.75 1014.80 1012.52 1008.86 1007.66 1008.07 1008.01 1008.27 1008.76 1009.32 1009.37 1009.16 1008.28 1007.49 1006.82 1006.46 1006.43 1007.41 1007.63 1007.61 1007.01 1006.76 1006.25 1005.63 1005.03 1004.35 1003.76 1003.36 1002.64 1002.00 1001.22 1000.35 999.77
1024.30 1023.82 1023.32 1022.79 1022.31 1021.81 1021.22 1020.63 1019.99 1019.26 1018.62 1017.75 1017.07 1016.82 1016.26 1015.64 1015.53 1014.99 1014.39 1014.50 1014.25 1014.22 1013.97 1012.54 1009.12 1007.36 1007.29 1007.17 1007.59 1007.35 1007.65 1008.08 1008.03 1007.43 1006.72 1006.40 1006.35 1006.55 1007.55 1008.29 1007.78 1006.70 1006.39 1006.56 1005.86 1005.39 1004.97 1004.32 1003.59 1002.51 1002.02 1001.43 1000.81 1000.04
1023.88 1023.42 1022.91 1022.42 1021.90 1021.37 1020.76 1020.15 1019.43 1018.64 1017.81 1016.68 1016.06 1015.87 1015.62 1015.05 1014.04 1014.50 1014.72 1014.65 1014.19 1014.24 1013.30 1011.65 1008.96 1007.13 1006.61 1006.90 1006.79 1006.90 1006.76 1006.72 1006.44 1006.46 1006.11 1006.48 1006.68 1007.21 1007.69 1007.53 1007.40 1007.34 1007.28 1006.66 1005.72 1005.42 1004.73 1004.08 1003.63 1003.27 1002.85 1002.13 1001.37 1000.88
1023.40 1022.97 1022.57 1022.06 1021.51 1020.90 1020.33 1019.68 1019.01 1018.14 1016.88 1015.59 1015.24 1014.31 1013.92 1013.89 1014.23 1014.56 1014.80 1014.14 1014.13 1013.58 1012.83 1010.24 1007.94 1006.79 1006.33 1006.38 1006.61 1006.91 1006.16 1006.13 1006.24 1005.90 1005.84 1006.43 1006.95 1007.14 1007.18 1007.32 1007.61 1007.12 1006.82 1006.61 1006.25 1005.61 1005.08 1004.69 1004.39 1003.93 1003.64 1003.19 1002.49 1001.82
1022.94 1022.57 1022.12 1021.70 1021.17 1020.49 1019.87 1019.31 1018.73 1017.89 1016.19 1015.16 1014.79 1014.11 1013.99 1013.70 1013.25 1012.75 1012.44 1012.53 1011.86 1011.09 1009.61 1007.60 1006.70 1006.12 1006.22 1006.42 1007.21 1007.42 1007.01 1005.88 1005.30 1005.17 1005.01 1005.71 1006.23 1006.21 1006.25 1006.33 1006.22 1006.04 1005.95 1006.08 1006.05 1005.90 1005.63 1005.30 1004.81 1004.47 1004.23 1003.97 1003.39 1002.97
1022.63 1022.19 1021.67 1021.23 1020.80 1020.26 1019.54 1019.05 1018.43 1017.69 1017.00 1017.52 1017.49 1016.43 1014.79 1013.59 1012.31 1011.85 1010.63 1009.43 1008.55 1006.92 1006.39 1005.45 1005.72 1005.60 1006.21 1007.10 1007.90 1008.06 1007.85 1007.24 1005.49 1005.00 1004.65 1005.00 1005.36 1005.46 1005.49 1005.38 1005.35 1005.44 1005.58 1005.47 1005.31 1005.54 1005.60 1005.52 1005.53 1005.14 1004.84 1004.63 1004.27 1003.89
1022.28 1021.72 1021.23 1020.67 1020.21 1019.82 1019.35 1018.88 1018.51 1018.07 1017.31 1016.60 1016.47 1015.80 1014.41 1012.42 1011.18 1009.45 1007.92 1006.13 1005.15 1004.54 1004.30 1004.38 1004.79 1005.80 1006.44 1007.06 1008.19 1008.57 1008.50 1007.66 1006.84 1005.53 1004.56 1004.78 1004.90 1005.06 1005.31 1005.28 1005.20 1005.16 1005.14 1004.88 1004.84 1005.27 1005.44 1005.36 1005.31 1005.38 1005.31 1005.04 1004.78 1004.14
1021.83 1021.25 1020.76 1020.15 1019.57 1019.02 1018.91 1018.74 1018.33 1017.68 1017.09 1015.30 1014.55 1013.62 1012.18 1009.69 1007.82 1006.35 1005.14 1003.90 1003.37 1003.51 1003.69 1003.79 1004.38 1005.36 1005.82 1006.72 1007.88 1008.44 1007.87 1007.47 1007.00 1005.61 1004.60 1004.85 1005.22 1004.99 1005.05 1005.08 1005.09 1005.03 1004.76 1004.51 1004.56 1005.14 1005.47 1005.46 1005.34 1005.52 1005.37 1005.56 1005.14 1004.59
1021.42 1020.70 1020.22 1019.48 1019.19 1018.97 1018.64 1018.31 1018.07 1017.60 1016.44 1014.03 1012.67 1011.25 1008.81 1007.04 1005.42 1004.34 1003.84 1003.44 1003.16 1003.51 1003.78 1003.78 1004.20 1004.74 1005.77 1006.76 1007.38 1007.95 1007.88 1007.34 1006.32 1005.28 1004.43 1004.37 1004.19 1004.50 1004.90 1004.91 1004.93 1004.87 1004.59 1004.51 1004.43 1004.75 1005.26 1005.39 1005.60 1005.61 1005.54 1005.41 1005.07 1004.85
1021.04 1020.18 1019.58 1019.30 1018.99 1018.61 1018.14 1017.38 1016.42 1016.24 1015.32 1012.94 1010.90 1008.67 1006.86 1005.49 1004.10 1003.50 1003.09 1002.92 1002.98 1003.10 1003.43 1003.83 1004.07 1004.56 1005.17 1005.87 1006.75 1007.11 1007.22 1006.57 1005.77 1004.86 1004.02 1003.89 1003.83 1004.02 1004.49 1004.63 1004.99 1004.98 1004.84 1004.92 1004.82 1004.78 1005.10 1005.17 1005.42 1005.60 1005.58 1005.56 1005.16 1005.06
1020.63 1019.25 1018.96 1018.93 1018.70 1018.16 1017.20 1017.01 1015.07 1014.41 1013.18 1011.53 1009.09 1007.59 1006.65 1005.51 1004.40 1003.22 1002.71 1002.34 1002.26 1002.75 1003.05 1003.84 1004.28 1004.11 1004.23 1004.92 1005.43 1005.82 1005.93 1005.24 1004.65 1003.96 1003.67 1003.66 1003.72 1003.86 1004.06 1004.30 1004.58 1004.65 1004.99 1005.27 1005.38 1005.35 1005.23 1005.38 1005.71 1005.60 1005.35 1005.52 1005.54 1005.60
1020.16 1019.17 1019.17 1019.09 1018.83 1017.81 1016.36 1015.99 1014.07 1012.07 1011.40 1009.88 1008.34 1006.63 1005.53 1004.44 1003.28 1002.50 1002.13 1002.10 1002.20 1002.25 1002.56 1002.91 1003.43 1003.36 1003.60 1003.66 1003.82 1003.96 1004.18 1003.98 1003.56 1003.14 1003.05 1003.57 1003.61 1003.66 1003.65 1003.89 1004.00 1004.29 1004.83 1004.98 1005.28 1005.50 1005.41 1005.50 1005.70 1005.94 1005.61 1005.76 1005.66 1005.96
1020.14 1019.76 1019.21 1018.86 1018.85 1018.36 1016.38 1014.40 1013.85 1011.73 1009.39 1007.91 1006.53 1005.53 1004.56 1003.65 1002.78 1002.13 1001.77 1001.83 1002.03 1002.05 1002.22 1002.35 1002.51 1002.28 1002.11 1002.01 1001.84 1002.06 1002.66 1002.79 1002.58 1002.88 1003.02 1002.82 1003.05 1003.36 1003.43 1003.75 1004.16 1004.33 1004.46 1004.51 1004.56 1005.02 1005.32 1005.72 1005.96 1006.43 1006.46 1006.57 1006.50 1006.83
1019.79 1019.09 1018.40 1017.95 1018.15 1017.21 1015.88 1013.79 1012.31 1010.77 1008.60 1006.83 1005.70 1004.66 1003.79 1002.85 1002.06 1001.50 1001.31 1001.57 1001.59 1001.86 1002.19 1001.89 1001.62 1001.50 1001.26 1000.97 1000.89 1000.99 1001.36 1001.79 1001.78 1002.29 1002.82 1002.74 1003.13 1003.41 1003.67 1003.67 1004.04 1004.31 1004.27 1004.31 1004.44 1004.65 1004.69 1005.37 1005.88 1006.40 1006.96 1006.94 1007.06 1007.41
1018.61 1018.00 1017.48 1017.15 1016.87 1016.53 1014.87 1012.79 1010.84 1009.05 1007.65 1006.39 1005.34 1004.47 1003.24 1002.26 1001.63 1001.05 1000.74 1001.08 1001.19 1001.27 1001.26 1001.44 1001.01 1000.79 1000.69 1000.45 1000.32 1000.41 1000.61 1000.67 1000.92 1001.40 1001.38 1002.19 1002.82 1003.93 1004.83 1003.79 1003.90 1003.81 1004.07 1004.21 1004.12 1004.36 1004.90 1005.41 1005.96 1006.35 1006.58 1006.83 1007.48 1007.68
1018.15 1017.70 1017.56 1016.67 1016.00 1015.07 1014.00 1012.37 1010.70 1008.54 1007.61 1006.10 1005.27 1004.50 1003.61 1002.97 1002.22 1001.32 1000.71 1000.15 999.88 1000.06 1000.02 999.97 1000.00 1000.26 1000.11 999.92 999.73 999.90 1000.00 1000.22 1000.41 1001.08 1001.56 1002.51 1002.65 1003.51 1003.70 1003.10 1003.40 1003.77 1003.98 1004.30 1004.51 1004.33 1005.18 1005.70 1005.96 1005.96 1006.13 1006.78 1007.59 1008.15
1017.72 1017.33 1016.88 1016.14 1014.76 1013.29 1011.71 1010.38 1009.95 1008.85 1007.31 1005.30 1004.50 1003.89 1002.84 1002.07 1001.27 1000.61 1000.09 999.75 999.24 998.97 998.98 999.12 999.41 999.54 999.63 999.47 999.54 999.57 999.63 999.72 999.94 1000.32 1000.95 1001.51 1001.95 1002.41 1002.68 1002.95 1003.25 1003.57 1003.88 1004.25 1004.59 1005.12 1005.39 1006.13 1006.44 1006.24 1006.52 1006.91 1007.69 1008.25
1016.88 1016.85 1015.74 1014.37 1013.28 1011.92 1010.62 1009.50 1009.09 1008.41 1007.07 1005.85 1004.89 1004.02 1003.16 1002.34 1001.56 1000.87 1000.42 999.55 998.70 998.52 998.10 998.41 998.81 999.58 999.23 999.17 999.12 999.14 999.07 999.10 999.39 999.77 1000.17 1001.06 1001.73 1002.59 1002.49 1003.00 1003.08 1003.28 1003.28 1004.19 1004.53 1005.05 1005.39 1005.96 1006.54 1006.61 1007.28 1007.42 1007.79 1008.41
1016.88 1015.68 1014.61 1012.87 1011.84 1011.15 1009.92 1008.90 1008.13 1007.71 1006.70 1005.88 1004.99 1004.08 1003.28 1002.68 1001.90 1000.91 999.83 999.04 998.46 998.32 998.30 998.70 999.12 998.79 998.53 998.48 998.43 998.57 998.74 998.96 999.22 999.43 999.70 1000.59 1001.94 1002.53 1003.51 1003.45 1002.57 1002.63 1003.28 1003.64 1004.25 1004.86 1005.35 1005.68 1006.41 1006.76 1007.70 1008.40 1008.54 1008.81
1015.28 1013.70 1012.75 1011.12 1010.12 1009.48 1008.80 1008.09 1007.48 1006.61 1005.79 1005.12 1004.29 1003.76 1003.37 1002.82 1002.33 1001.22 999.94 999.29 998.92 998.75 999.46 999.25 999.23 998.79 998.58 998.50 998.52 998.57 998.74 998.98 999.10 999.50 999.77 1000.40 1001.40 1001.82 1002.10 1002.96 1002.46 1002.50 1002.99 1003.76 1004.23 1004.63 1004.94 1005.59 1006.30 1007.19 1007.85 1008.91 1009.37 1009.17
1013.91 1012.58 1011.05 1009.97 1009.08 1008.56 1008.04 1007.60 1007.35 1007.18 1006.46 1005.31 1004.11 1003.73 1003.15 1003.34 1002.31 1001.40 1001.85 1002.51 1001.06 1000.27 1000.10 999.81 999.77 999.23 999.23 999.24 999.51 999.53 999.37 999.03 999.21 999.27 999.34 1000.05 1000.91 1001.98 1001.78 1001.48 1001.79 1002.55 1003.37 1003.62 1004.19 1004.71 1005.09 1005.62 1006.32 1007.13 1007.69 1008.16 1008.88 1009.27
1011.84 1010.93 1010.07 1009.63 1008.81 1008.33 1007.79 1007.55 1006.99 1006.35 1005.47 1004.95 1004.64 1004.27 1004.05 1003.98 1005.06 1004.82 1004.49 1004.27 1003.55 1002.99 1001.93 1001.01 1000.19 1000.01 999.91 999.96 1000.03 1000.07 999.86 1000.06 999.79 999.81 1000.12 1000.44 1000.91 1001.03 1001.19 1001.85 1002.60 1003.13 1003.30 1003.91 1004.62 1005.11 1005.68 1006.15 1006.74 1007.29 1007.74 1008.18 1008.87 1009.54
1010.07 1009.71 1009.47 1008.83 1008.50 1008.04 1007.28 1006.50 1005.73 1005.19 1004.90 1004.72 1004.88 1005.32 1004.92 1004.60 1005.51 1005.81 1005.33 1005.35 1005.07 1004.43 1002.49 1000.93 1000.67 1000.59 1000.65 1000.84 1000.71 1000.79 1001.06 1001.24 1001.99 1001.42 1000.71 1001.36 1002.56 1001.48 1001.41 1002.40 1002.96 1003.34 1004.25 1005.28 1006.24 1005.87 1006.22 1006.89 1007.14 1007.54 1007.90 1008.47 1009.22 1009.89
1009.14 1008.95 1008.74 1008.37 1007.80 1006.98 1006.41 1005.86 1004.95 1004.53 1004.26 1003.96 1003.95 1004.82 1004.58 1004.44 1006.22 1006.48 1006.41 1005.93 1005.00 1004.01 1003.15 1002.63 1002.36 1002.38 1002.11 1001.82 1001.98 1001.72 1002.91 1002.89 1003.06 1003.43 1003.54 1002.77 1002.57 1002.24 1001.98 1002.43 1003.18 1003.42 1004.12 1005.12 1006.24 1007.09 1007.57 1007.52 1008.00 1007.97 1008.44 1009.81 1010.59 1011.01
1008.52 1008.17 1007.76 1007.14 1006.50 1005.88 1005.38 1004.97 1004.26 1004.06 1003.38 1003.03 1002.96 1003.17 1003.54 1004.62 1006.71 1007.56 1007.74 1007.22 1006.25 1005.38 1005.08 1005.21 1004.89 1005.10 1004.51 1004.20 1004.24 1004.24 1004.96 1005.05 1005.27 1004.77 1004.21 1003.83 1003.59 1003.86 1003.53 1003.56 1004.03 1004.90 1004.43 1004.65 1005.49 1006.44 1007.01 1007.37 1008.31 1008.94 1009.70 1010.48 1011.14 1011.30
1007.51 1006.99 1006.60 1006.02 1005.44 1004.94 1004.63 1004.79 1004.18 1003.51 1003.31 1003.14 1002.93 1003.18 1003.37 1003.85 1006.59 1008.71 1009.48 1008.97 1008.34 1008.11 1007.95 1007.80 1007.17 1006.80 1006.48 1005.78 1005.93 1006.42 1006.74 1006.81 1006.48 1006.35 1006.03 1005.48 1005.51 1004.41 1004.42 1004.90 1005.21 1005.46 1006.26 1005.49 1006.00 1006.78 1007.79 1008.57 1009.25 1009.76 1010.31 1010.99 1011.47 1011.85
1006.30 1005.92 1005.55 1005.33 1004.92 1004.33 1003.74 1003.94 1003.71 1003.35 1003.10 1003.31 1003.43 1003.66 1004.69 1006.23 1008.17 1009.73 1010.04 1009.99 1009.99 1009.87 1009.63 1009.40 1008.92 1008.18 1007.56 1007.29 1007.44 1007.65 1007.69 1007.90 1008.04 1007.91 1007.66 1007.45 1007.32 1007.11 1006.73 1006.72 1006.73 1006.98 1007.40 1007.47 1007.74 1008.16 1008.70 1009.22 1009.74 1010.31 1010.83 1011.44 1011.97 1012.33
Wind_Speed
16 18 19 20 20 20 19 21 22 21 21 20 21 20 19 17 15 10 9 10 5 5 16 20 14 17 15 6 4 8 10 8 5 7 5 5 5 5 4 4 5 4 5 1 3 4 5 19 14 11 7 5 11 12
18 17 17 17 18 19 19 19 19 21 21 20 21 20 19 18 15 12 8 6 3 3 15 23 24 21 17 8 4 1 4 10 3 4 5 5 3 4 6 3 8 4 5 4 6 3 6 14 7 12 11 11 13 12
19 18 17 17 18 19 19 19 19 20 21 20 21 21 19 18 17 11 10 7 3 4 13 9 7 10 6 8 8 3 3 2 4 3 3 3 4 3 4 4 4 6 12 4 1 5 10 12 13 12 16 15 16 11
18 18 18 17 18 19 19 19 19 20 22 22 20 21 19 18 16 13 9 8 3 4 5 8 6 2 8 9 9 6 2 2 4 4 3 5 4 6 2 1 3 3 5 9 4 8 9 9 16 16 9 12 13 13
17 16 17 18 18 19 19 20 20 19 21 23 22 22 20 20 18 13 10 9 7 4 6 12 20 14 8 10 11 10 6 3 3 4 4 5 3 4 3 2 3 4 5 2 1 7 5 8 10 13 9 7 7 8
16 16 17 18 18 19 20 19 20 20 21 24 26 24 23 19 15 8 4 5 9 6 4 6 7 5 5 8 9 11 8 6 5 4 6 6 5 5 4 2 10 11 11 11 6 8 8 7 7 8 10 9 6 8
17 17 16 18 18 19 19 19 20 21 21 23 25 23 22 18 7 6 4 1 2 5 3 6 5 3 9 6 4 4 9 7 6 5 3 4 5 5 4 4 13 10 10 11 11 12 11 8 7 10 9 9 10 6
16 17 17 17 17 19 19 19 20 21 22 24 24 21 21 12 5 7 3 5 4 4 3 4 7 2 3 2 3 3 5 5 5 4 3 3 2 4 2 6 10 11 10 7 12 7 9 9 13 11 9 8 10 9
18 19 18 18 19 19 19 19 20 21 23 27 25 26 6 4 2 2 0 2 5 3 3 5 7 3 6 4 2 3 3 3 2 3 1 2 3 3 3 6 6 6 1 8 10 6 8 11 11 11 13 14 10 10
18 18 19 19 19 18 19 19 20 22 27 30 12 5 3 3 7 7 4 4 3 3 5 7 11 6 3 1 1 3 2 3 2 3 5 2 1 4 5 4 4 10 7 4 11 11 9 10 9 9 13 13 15 15
17 18 19 20 21 20 19 18 17 21 18 5 4 3 7 4 4 4 3 5 6 6 7 8 12 7 1 3 1 3 3 4 2 3 3 3 3 2 5 4 3 6 8 3 2 6 7 9 10 8 9 12 14 16
17 18 19 19 20 20 20 21 14 9 6 8 8 8 5 4 5 3 5 6 8 7 4 9 5 5 4 3 1 2 2 5 3 8 2 3 5 7 4 4 6 8 8 7 7 5 5 8 10 9 9 10 10 11
18 19 20 20 20 19 20 9 11 14 15 2 3 3 3 5 6 7 6 5 4 5 4 3 4 4 5 3 1 1 2 5 8 4 1 3 7 6 5 4 8 7 6 5 10 13 7 12 10 10 8 10 11 12
19 21 21 21 20 14 4 12 15 11 5 4 4 5 7 7 7 7 8 7 1 1 4 2 2 3 1 3 2 3 4 1 3 3 2 6 2 7 4 4 4 6 4 10 11 14 12 8 14 11 13 9 7 9
21 23 23 13 8 9 13 16 17 5 5 5 4 6 8 10 10 8 7 8 3 1 5 4 2 2 2 3 3 0 3 3 4 4 1 6 7 9 6 4 2 4 8 9 9 10 9 7 8 11 9 10 11 12
21 21 4 9 13 16 19 18 12 7 4 6 8 9 10 10 8 8 10 7 6 5 3 3 3 2 5 3 4 5 3 5 3 3 4 5 4 4 5 4 3 3 5 6 8 9 10 11 10 6 11 9 11 14
21 3 14 17 20 22 19 6 5 7 6 6 7 9 12 12 11 11 7 8 3 6 6 2 4 6 3 3 5 5 5 4 5 6 1 6 3 1 1 3 8 5 6 4 5 7 9 8 11 8 9 10 11 12
12 11 20 21 17 12 3 5 6 6 11 9 10 11 12 12 12 10 9 8 7 7 8 7 6 5 5 3 3 6 5 7 9 4 4 7 2 2 5 5 1 4 5 3 6 3 4 8 9 7 10 12 10 12
14 15 21 22 13 6 4 5 5 6 8 10 11 11 12 10 11 10 8 7 7 7 6 6 7 6 9 9 10 8 5 8 8 0 7 5 6 5 4 4 3 3 2 1 4 5 3 8 7 6 7 8 8 9
22 21 18 15 8 3 5 6 5 6 6 7 11 11 11 10 10 10 8 8 8 6 7 10 12 9 9 9 6 5 5 9 7 4 5 4 2 3 5 4 4 5 3 3 3 1 4 6 6 6 4 5 7 8
17 1 10 9 5 5 5 6 7 7 8 11 11 11 9 10 10 10 9 8 9 9 9 10 12 10 12 10 9 7 8 8 3 7 6 4 5 6 5 7 7 4 2 3 3 4 4 6 4 4 2 8 6 6
12 8 7 6 6 6 6 7 7 7 9 12 13 13 11 11 12 13 10 11 11 10 11 10 9 9 12 13 10 10 9 10 8 4 10 10 9 8 10 7 5 5 3 3 6 5 4 6 4 3 6 7 6 5
13 6 4 6 7 6 8 9 10 8 8 7 7 11 11 11 11 11 11 12 12 11 11 10 11 13 11 12 9 9 10 9 8 7 7 8 5 2 3 1 5 1 5 3 4 3 6 8 3 4 5 6 5 5
3 4 5 6 9 6 5 7 3 5 8 11 12 17 16 12 12 6 6 11 9 10 8 4 4 7 9 10 8 8 9 8 8 7 4 3 7 9 8 7 6 9 5 6 5 4 4 4 5 5 5 4 4 5
4 6 6 7 6 6 6 12 14 15 20 16 17 14 8 7 8 12 12 9 9 5 4 4 5 8 7 6 5 6 6 6 7 8 6 9 5 6 4 4 9 7 4 4 5 5 4 3 6 5 6 4 4 5
8 6 7 7 7 11 11 17 17 16 14 17 17 13 11 12 15 11 9 5 8 5 3 3 6 4 3 4 4 3 3 4 5 5 5 9 9 8 10 11 8 6 5 7 6 6 4 6 7 3 8 7 2 2
8 9 8 13 13 13 11 10 10 6 9 8 6 6 6 5 6 2 8 12 5 2 1 1 3 2 3 4 6 7 9 5 5 7 5 9 8 4 10 5 7 9 9 6 6 4 3 6 6 5 3 5 4 3
10 9 17 13 14 10 14 13 16 18 10 6 8 2 9 6 8 5 5 9 12 13 9 6 1 4 5 5 6 6 6 9 8 4 6 3 5 8 9 9 9 12 9 6 6 7 5 5 7 6 5 4 5 5
11 11 13 18 18 13 15 16 16 13 13 13 9 7 5 2 2 5 5 4 5 9 10 7 8 7 6 7 6 7 6 6 8 11 9 9 8 7 9 10 8 8 8 8 12 9 8 5 5 7 5 7 6 6
16 12 14 14 18 19 15 14 15 12 11 10 6 7 10 3 7 7 7 8 7 6 8 9 10 10 10 7 9 5 6 6 6 6 8 6 3 6 2 9 7 7 9 9 8 8 5 7 5 7 8 9 6 3
7 10 12 13 15 14 14 15 12 13 13 12 11 11 9 4 4 8 10 9 10 10 10 11 8 9 9 9 8 6 8 9 12 15 10 9 3 6 1 5 6 8 3 10 11 10 9 6 10 9 8 7 6 4
7 8 10 15 14 12 10 11 13 11 9 10 10 10 11 11 6 4 7 9 9 9 9 9 8 7 8 8 8 7 7 6 9 11 15 11 12 8 6 6 6 5 6 5 8 11 13 12 9 8 7 7 6 5
6 10 12 8 6 6 7 9 6 9 8 8 11 9 5 6 6 5 5 7 6 6 5 4 6 7 9 9 8 7 8 9 11 11 11 13 14 11 9 9 10 11 12 10 9 9 10 12 10 9 7 6 6 7
Wind_Direction
300 304 306 310 312 314 312 315 317 318 320 323 322 322 321 318 315 312 288 292 248 258 290 284 320 299 301 302 289 331 320 12 14 354 341 352 329 354 301 318 360 332 333 345 242 224 341 325 336 50 313 316 45 53
298 298 299 304 307 310 308 309 310 313 317 317 320 320 319 315 310 305 279 282 233 239 276 287 278 276 276 288 301 58 295 299 344 325 8 309 313 295 314 23 358 10 22 341 4 31 287 298 6 17 352 25 38 34
299 300 301 299 304 303 305 308 306 308 314 315 315 314 314 312 310 293 282 287 254 270 281 280 222 230 217 221 154 176 229 312 302 1 309 285 288 290 331 39 342 344 6 24 5 358 325 319 5 18 16 7 0 17
300 302 303 303 302 303 301 303 304 306 311 315 313 312 314 312 307 298 270 254 218 279 281 302 129 170 202 137 173 199 204 245 278 272 242 249 241 207 327 87 37 8 350 345 1 1 351 358 338 335 6 1 355 357
300 305 306 305 304 309 302 301 301 304 303 312 313 315 314 312 306 286 257 247 209 255 303 308 302 269 184 171 182 194 198 237 269 264 225 262 269 354 102 234 47 358 13 14 45 290 303 317 299 314 347 345 350 342
305 305 305 305 308 306 305 303 302 303 303 312 313 313 313 310 310 267 257 183 220 211 293 296 333 195 213 213 212 207 207 210 247 263 289 301 15 328 23 44 11 8 359 339 316 327 277 290 302 320 313 314 358 310
309 309 308 307 309 310 307 306 305 305 304 308 308 309 309 305 265 262 16 257 184 153 248 271 274 191 178 218 219 222 207 230 250 290 275 302 332 350 35 357 345 337 348 341 329 347 342 342 309 306 328 317 325 330
311 309 311 312 317 317 313 309 309 304 305 302 301 310 312 310 234 264 169 246 258 223 230 268 267 189 169 229 266 219 201 190 219 242 269 320 354 23 88 337 314 320 357 341 343 310 297 324 355 358 346 331 326 340
314 313 313 316 314 313 317 315 312 310 305 297 301 302 275 230 195 104 180 260 237 273 279 241 259 276 168 239 242 252 233 232 272 254 234 61 11 39 316 330 344 2 194 306 331 334 353 5 358 5 353 344 340 337
318 319 315 315 315 314 312 315 317 314 303 298 287 205 173 30 132 155 178 178 193 218 230 257 268 259 272 129 311 280 273 254 230 236 100 58 246 207 232 327 339 345 301 357 15 10 11 12 12 356 2 356 357 2
319 315 314 317 319 321 321 314 318 316 296 322 327 342 350 169 252 201 227 213 173 219 213 235 244 237 165 328 144 266 292 291 250 215 199 138 152 94 114 118 172 46 44 69 29 16 19 9 4 17 16 359 355 354
323 320 318 316 314 317 320 318 313 303 343 320 298 295 290 267 234 227 234 212 201 230 159 246 152 255 110 74 33 291 278 309 264 333 184 170 126 126 85 71 84 77 41 5 79 86 48 53 41 25 30 10 354 354
322 317 318 320 313 310 309 332 327 308 297 222 198 236 234 230 230 221 211 234 222 196 236 188 201 176 165 116 138 297 279 252 337 284 276 124 156 117 97 56 35 41 32 356 67 65 37 52 57 46 36 26 9 5
322 317 317 316 313 311 275 323 322 318 282 242 222 236 227 212 229 214 248 265 86 3 309 263 253 151 53 138 114 252 240 251 277 253 186 127 241 129 116 68 41 349 18 26 58 57 17 51 44 48 59 52 29 18
322 317 314 310 322 316 315 316 306 281 276 264 225 243 234 238 272 281 245 268 278 217 279 303 312 259 159 173 213 271 268 261 227 244 155 167 140 141 158 140 77 347 32 10 25 57 51 28 60 50 41 45 35 32
324 310 41 3 351 336 321 308 281 217 249 251 233 259 271 277 270 248 239 238 252 257 215 254 257 223 215 193 175 204 242 230 252 256 279 144 99 78 120 150 116 4 28 23 358 35 35 34 48 46 56 21 34 36
310 258 8 358 345 318 300 272 242 208 248 246 249 250 262 280 291 293 296 302 226 224 219 195 233 226 191 218 194 177 208 238 234 238 37 346 100 78 131 178 165 177 105 81 42 16 25 29 56 20 40 43 40 32
289 320 338 329 330 302 269 206 272 231 223 239 254 260 263 268 276 269 255 263 259 240 245 216 220 243 228 201 235 213 209 234 251 249 249 133 230 163 235 194 81 81 117 112 125 57 33 37 48 15 12 30 35 28
313 308 302 299 303 295 276 217 230 261 256 264 261 265 269 269 275 275 262 267 270 257 255 247 241 242 248 247 250 270 190 232 246 264 303 199 184 220 242 125 198 50 0 262 129 143 95 82 65 45 16 29 358 47
296 288 295 282 267 249 260 251 234 249 264 278 289 287 285 277 272 269 251 262 250 225 241 247 249 253 267 286 281 249 260 190 210 204 277 131 88 33 231 187 170 207 227 295 105 312 115 84 66 64 29 18 35 31
291 294 288 251 251 241 267 268 244 249 261 256 266 282 290 295 287 276 242 235 236 239 238 244 253 258 273 271 284 300 297 295 312 268 198 201 141 148 346 256 193 201 203 278 285 115 78 88 80 105 46 62 45 20
280 290 294 272 244 221 250 245 249 297 299 284 286 282 281 283 287 284 290 266 233 226 233 241 250 253 259 263 256 253 253 261 220 172 118 163 173 172 211 202 187 207 199 178 249 97 92 74 20 4 70 83 83 60
263 240 224 244 237 243 258 225 239 240 252 277 292 280 260 246 261 257 246 246 256 250 243 250 253 256 272 281 285 285 283 249 248 195 204 218 186 168 110 70 155 222 169 199 75 65 101 124 90 20 40 75 69 45
214 223 238 233 214 253 237 255 249 264 273 262 260 266 275 292 291 267 251 272 245 252 255 260 357 249 245 248 252 257 261 230 232 240 202 225 168 216 170 170 171 214 131 172 132 114 110 121 135 88 35 25 43 73
250 235 237 247 228 232 252 258 254 253 262 269 276 275 273 291 288 287 281 271 259 278 283 154 240 252 255 261 268 238 218 243 227 231 224 104 95 101 206 208 223 134 160 125 123 142 151 163 122 83 90 37 1 73
233 246 222 225 230 236 246 264 271 278 271 271 264 257 261 269 262 255 269 260 286 158 177 233 259 265 291 318 318 277 247 257 257 222 223 153 171 171 161 218 218 146 113 141 161 208 150 111 100 95 127 144 187 310
230 247 254 258 264 275 276 272 279 283 297 283 297 320 237 238 231 232 29 8 339 59 264 307 288 20 30 352 2 336 328 297 256 263 234 173 135 162 251 171 181 147 180 147 124 137 147 133 125 130 142 127 95 60
226 244 255 262 269 278 273 268 279 291 280 283 327 273 340 26 12 323 347 338 343 336 331 270 7 4 351 349 329 310 316 347 327 230 86 84 181 193 148 90 73 96 114 103 107 135 142 132 130 135 132 109 105 76
235 245 259 264 268 272 274 271 269 261 259 265 253 277 277 206 168 316 353 359 326 315 323 4 19 1 339 330 312 320 25 42 25 330 218 143 205 196 135 129 139 131 120 92 56 60 57 85 108 117 112 99 99 88
266 259 252 252 259 264 264 265 267 267 270 274 266 231 256 261 53 34 3 337 324 317 320 347 1 3 340 0 334 8 45 41 70 67 357 313 45 346 157 137 158 160 135 146 130 117 89 131 124 137 123 90 77 94
258 276 277 269 263 261 256 263 261 280 275 271 268 260 248 136 86 40 24 352 343 9 17 12 7 25 19 41 33 41 51 31 8 23 10 345 234 226 214 94 61 11 248 173 154 166 167 146 91 86 91 97 94 96
246 250 256 263 268 270 255 250 264 242 249 271 281 284 274 247 82 59 15 8 17 13 10 357 4 18 20 27 51 62 39 36 30 25 21 34 9 17 92 101 95 72 315 56 98 95 95 105 108 107 106 117 123 119
264 257 258 265 262 260 240 219 249 272 274 259 251 248 31 51 69 36 36 22 23 358 340 332 338 5 24 48 57 55 51 60 58 41 42 47 41 26 37 46 48 55 61 65 71 87 99 105 102 104 107 113 113 113